Weather in Jaboatão dos Guararapes

Brazil     8°10′46″S   34°56′49″W
В апреле 2022 года жителям России запретили посещать сайт meteo.paraplan.net по решению Генеральной прокуратуры. Аудитория сайта уменьшилась в 10 раз. Владельцы сайта не видят смысла в поддержке погодного сервера в таких условиях. Сайт будет закрыт в октябре.
temp.,
°C
wind,
m/s
gust,
m/s
humid.,
%
clouds,
%
prec.,
mm/h
press.,
hPa
HPBL,
m
3 october, mon
mon300:00+22sse23817 0.1 1016238
03:00+22sse237914 0.3 1015224
06:00+23sse25772 0.3 1017329
09:00+27se55577 0.3 10171401
12:00+28ese655513 0.1 10151513
15:00+27se555825 0.1 10141349
18:00+23sse357312 0.0 1015327
21:00+22se23802 0.0 1016214
4 october, tue
tue400:00+23sse248199 0.1 1015227
03:00+23sse2380100 0.4 1014169
06:00+24se377813 0.3 1015436
09:00+28ese565925 0.4 10161306
12:00+28ese5555100 0.0 10141475
15:00+27se5563100 0.1 10131075
18:00+23sse2476100 0.0 1014175
21:00+24s2380100 0.1 1015140
5 october, wed
wed500:00+25se2478100 0.2 1014191
03:00+23e238382 0.4 1012138
06:00+25ese3776100 0.3 1014349
09:00+28ese466164 0.4 1016906
12:00+30ese66505 0.0 10141395
15:00+28ese56575 0.0 10121180
18:00+24se35845 0.1 1014248
21:00+23ese24889 0.4 1016162
6 october, thu
thu600:00+23ese2389100 0.6 1015158
03:00+23e238897 1.0 1013170
06:00+24e368522 0.8 1014352
09:00+28ene57689 1.2 10161151
12:00+29e566171 0.1 10141286
15:00+28e566548 0.2 10131156
18:00+24e348520 0.3 1014156
21:00+24e23885 0.4 1015119
7 october, fri
fri700:00+23ese239035 0.6 1014120
03:00+23ese23919 1.1 1013139
06:00+24se258870 0.2 1014293
09:00+27ese567470 0.9 1016945
12:00+28ese676971 0.7 10141170
15:00+26ese666963 0.8 10131071
18:00+24ese34801 0.1 1014246
21:00+23ese34830 0.1 1015218